Regional Weather Roundup
Issued by NWS

Home | Current Version | Previous Version | Graphics & Text | Print | Product List | Glossary Off
Versions: 1 2 3 4 5 6 7 8 9 10 11 12 13 14 15 16 17 18 19 20 21 22 23 24 25 26 27 28 29 30 31 32 33 34 35 36 37 38 39 40 41 42 43 44 45 46 47 48 49 50

000
ASUS43 KTOP 301308
RWRKS

WEATHER ROUNDUP FOR KANSAS
NATIONAL WEATHER SERVICE GOODLAND KS
800 AM CDT SAT APR 30 2016

NOTE:  "FAIR" INDICATES FEW OR NO CLOUDS BELOW 12,000 FEET WITH NO
SIGNIFICANT WEATHER AND/OR OBSTRUCTIONS TO VISIBILITY.

KSZ001>006-013>018-027>032-041>047-301400-
NORTHWEST KANSAS

CITY           SKY/WX    TMP DP  RH WIND       PRES   REMARKS
GOODLAND       FOG       32  32 100 N14       29.79R VSB 1   WCI  22
HAYS           CLOUDY    43  36  75 NW12      29.73R
HILL CITY      CLOUDY    41  39  93 NW16      29.75R
RUSSELL        CLOUDY    46  45  96 W8        29.70R FOG
$$

KSZ061>065-074>080-084>089-301400-
SOUTHWEST KANSAS

CITY           SKY/WX    TMP DP  RH WIND       PRES   REMARKS
DODGE CITY     CLOUDY    36  34  92 NW20      29.78R WCI  25
ELKHART          N/A     38  31  76 NW9         N/A
GARDEN CITY    CLOUDY    37  34  89 NW21G26   29.78R WCI  26
GREAT BEND     CLOUDY    43  37  81 W17       29.74R
LIBERAL        SUNNY     39  34  81 NW7       29.83R
PRATT          CLOUDY    40  38  91 NW15      29.77R WCI  32
$$

KSZ066>073-081>083-090>101-301400-
SOUTHEAST KANSAS

CITY           SKY/WX    TMP DP  RH WIND       PRES   REMARKS
CHANUTE        CLOUDY    60  56  86 W13       29.67R
COFFEYVILLE    CLOUDY    61  57  87 SW10      29.70R
HUTCHINSON     CLOUDY    48  46  93 W13       29.73R
MEDICINE LODGE   N/A     45  41  86 NW12      29.77R
NEWTON         CLOUDY    48  43  81 W14       29.72R
PARSONS        CLOUDY    60  58  92 SW6       29.70R
WICHITA INTL   CLOUDY    50  46  86 W14       29.74R
WICHITA JABRA  CLOUDY    49  48  97 W16       29.72R
WICHITA MCCONL CLOUDY    49  47  93 W9        29.73R
WINFIELD       CLOUDY    50  48  93 W14       29.75R
$$

KSZ007>012-019>026-033>040-048>060-102>105-301400-
NORTHEAST KANSAS

CITY           SKY/WX    TMP DP  RH WIND       PRES   REMARKS
CONCORDIA      FOG       46  45  96 N6        29.68R VSB 1
EMPORIA        CLOUDY    52  50  93 W6        29.67R
LAWRENCE       CLOUDY    59  58  96 SE8       29.64R
MANHATTAN      CLOUDY    52  49  89 W3        29.66R
MARYSVILLE     DRIZZLE   48  48 100 NE6       29.66R
OLATHE IND     CLOUDY    59  58  96 SE10      29.65S
OLATHE EXE     CLOUDY    58  57  97 S9        29.65R
SALINA         CLOUDY    51  49  92 W9        29.69R
TOPEKA BILLARD CLOUDY    57  56  96 CALM      29.64S
TOPEKA FORBES  CLOUDY    60  56  86 W6        29.64R
$$



USA.gov is the U.S. government's official web portal to all federal, state and local government web resources and services.